Location: St. Louis
(38.6270°N, 90.1994°W)
Time: 13:26:42
(UTC-06:00)

S-56A Canister/Altair - Pass Details

Date: 07 December 2021
Orbit: 633 x 2499 km, 38.9° (Epoch: 19 January)

Event Time Altitude Azimuth Distance (km) Brightness Sun altitude
Rises 18:39:26 0° 179° (S) 6,143 12.3 -22.8°
Reaches altitude 10° 18:47:33 10° 154° (SSE) 4,948 11.5 -24.3°
Maximum altitude 18:51:57 12° 135° (SE) 4,593 11.1 -25.2°
Enters shadow 18:52:59 12° 130° (SE) 4,554 11.1 -25.4°
Drops below altitude 10° 18:56:03 10° 116° (ESE) 4,555 - -26.0°
Sets 19:02:31 0° 89° (E) 5,128 - -27.2°
